Flag for Norway Weather past 2 weeks in Sarpsborg, Norway

Now
37 °F

Passing clouds.


Feels Like: 31 °F
Forecast: 40 / 46 °F
Wind: 9 mph from Southwest

Location: Rygge

Current Time: Mar 6, 2015 at 8:38:39 AM

Latest Report: Mar 6, 2015 at 7:50 AM


Visibility: N/A

Pressure: 30.09 "Hg

Humidity: 93%

Dew point: 36 °F

Location of SarpsborgLocation

Historic Weather in Sarpsborg — Graph

°F

Sarpsborg temperature yesterday

Maximum temperature yesterday: 43 °F (at 11:50 AM)
Minimum temperature yesterday: 23 °F (at 6:50 AM)
Average temperature yesterday: 35 °F

Past Weeks' High & Low Weather Summary

 TemperatureHumidityPressure
High43 °F (Feb 20, 12:20 PM)100% (Feb 19, 7:20 AM)30.30 "Hg (Feb 19, 7:20 AM)
Low23 °F (Mar 5, 6:50 AM)42% (Feb 22, 2:20 PM)29.00 "Hg (Feb 23, 12:50 PM)
Average37 °F88%29.55 "Hg
* Reported Feb 19 7:20 AM — Mar 6 7:20 AM, Sarpsborg, Weather by CustomWeather, © 2015

Note: Actual official high and low records may vary slightly from our data, if they occured in-between our weather recording intervals... More about our weather records

Advertising

Sarpsborg weather history for previous 24 hours

 ConditionsComfort  
Time TempWeatherWind HumidityBarometerVisibility
7:20 AM
Fri, Mar 6
37 °FSunny.10 mph100%30.09 "Hg10 mi
6:50 AM37 °FClear.7 mph100%30.09 "Hg10 mi
6:14 AM39 °FClear.7 mph93%30.09 "Hg10 mi
5:50 AM39 °FOvercast.7 mph93%30.09 "HgN/A
5:20 AM39 °FOvercast.9 mph93%30.09 "HgN/A
4:50 AM39 °FLow clouds.7 mph93%30.07 "HgN/A
4:20 AM39 °FLow clouds.8 mph100%30.07 "HgN/A
3:50 AM39 °FMostly cloudy.9 mph100%30.07 "Hg5 mi
3:20 AM39 °FLow clouds.7 mph100%30.09 "Hg4 mi
2:50 AM39 °FMostly cloudy.12 mph100%30.09 "Hg4 mi
2:20 AM39 °FLow clouds.9 mph100%30.09 "Hg4 mi
1:50 AM39 °FLow clouds.12 mph100%30.09 "Hg3 mi
1:20 AM39 °FLow clouds.10 mph100%30.09 "Hg3 mi
12:50 AM39 °FLow clouds.10 mph100%30.09 "Hg4 mi
12:20 AM39 °FLow clouds.15 mph100%30.09 "Hg5 mi
11:50 PM
Thu, Mar 5
39 °FLow clouds.9 mph100%30.12 "Hg5 mi
11:20 PM39 °FLow clouds.10 mph100%30.12 "Hg4 mi
10:50 PM39 °FFog.13 mph100%30.15 "Hg2 mi
10:20 PM39 °FFog.14 mph100%30.15 "Hg2 mi
9:50 PM39 °FFog.16 mph100%30.15 "Hg2 mi
9:20 PM39 °FLow clouds.16 mph93%30.15 "Hg3 mi
8:50 PM39 °FPassing clouds.16 mph93%30.18 "Hg5 mi
8:20 PM39 °FPassing clouds.16 mph93%30.18 "HgN/A
7:50 PM39 °FPassing clouds.16 mph87%30.21 "HgN/A
7:20 PM39 °FPassing clouds.15 mph87%30.21 "HgN/A
6:50 PM37 °FClear.12 mph93%30.21 "Hg10 mi
6:20 PM39 °FClear.13 mph81%30.21 "Hg10 mi
5:50 PM39 °FSunny.9 mph81%30.24 "Hg10 mi
5:20 PM39 °FSunny.13 mph81%30.24 "Hg10 mi
4:50 PM39 °FSunny.12 mph75%30.24 "Hg10 mi
4:20 PM39 °FSunny.10 mph70%30.24 "Hg10 mi
3:50 PM41 °FSunny.8 mph61%30.27 "Hg10 mi
3:20 PM41 °FSunny.9 mph57%30.27 "Hg10 mi
2:50 PM41 °FSunny.10 mph57%30.27 "Hg10 mi
2:20 PM43 °FSunny.9 mph53%30.27 "Hg10 mi
1:50 PM41 °FSunny.9 mph57%30.30 "Hg10 mi
1:20 PM39 °FSunny.9 mph61%30.30 "Hg10 mi
12:50 PM41 °FSunny.8 mph57%30.30 "Hg10 mi
12:20 PM41 °FPassing clouds.6 mph57%30.30 "HgN/A
11:50 AM43 °FPassing clouds.3 mph53%30.30 "HgN/A
11:20 AM41 °FPassing clouds.3 mph61%30.30 "HgN/A
10:50 AM41 °FSunny.2 mph61%30.30 "Hg10 mi
10:20 AM37 °FSunny.3 mph70%30.27 "Hg10 mi
9:50 AM34 °FSunny.2 mph81%30.27 "Hg10 mi
9:20 AM30 °FSunny.2 mph86%30.27 "Hg10 mi
8:50 AM30 °FSunny.No wind86%30.27 "Hg10 mi
8:20 AM27 °FSunny.No wind93%30.27 "Hg10 mi
Weather by CustomWeather, © 2015

See weather overviewHow to use our weather pages